343P/NEAT-LONEOS (2017)

Japanese version
Home page
Updated on March 25, 2017

---------------------------------------------------------------------

* Profile

Designation 343P/2016 P3
Recovery Date August 12, 2016
Magnitude 19.9 mag
Recoverer Pan-STARRS 1 telescope (Haleakala)

* Pictures

* Orbital Elements

Epoch 2017 Feb. 16.0 TT = JDT 2457800.5
T 2017 Jan. 27.72462 TT                                 MPCW
q   2.2801613            (2000.0)            P               Q
n   0.07692077     Peri.  137.54482     +0.81815961     -0.56711164
a   5.4757082      Node   257.24192     +0.49797736     +0.78134771
e   0.5835860      Incl.    5.58174     +0.28746025     +0.26053819
P  12.81
From 258 observations 2003 Sept. 18-2017 Jan. 29, mean residual 0".5.

* Magnitudes Graph

        m1 = 12.5 + 5 log d + 10.0 log r

---------------------------------------------------------------------

The orbital elements are published on M.P.E.C. 2017-E59.
The magnitudes graphs are made with Comet for Windows.

---------------------------------------------------------------------

Copyright(C) Seiichi Yoshida (comet@aerith.net). All rights reserved.